| time (UTC) | temp F | wind direction | speed knots | gust knots | rain 1hr in | rain 24hr in | rain mn in | humidity % | barometer mb |
| 20260504190014 | 67 | 129 | 0.0 | 2.6 | 0.00 | 0.00 | 0.00 | 63 | 1011.8 |
| 20260504184518 | 66 | 227 | 0.0 | 3.5 | 0.00 | 0.00 | 0.00 | 62 | 1012.1 |
| 20260504183024 | 64 | 244 | 0.0 | 5.2 | 0.00 | 0.00 | 0.00 | 65 | 1012.4 |
| 20260504181508 | 64 | 259 | 2.6 | 6.1 | 0.00 | 0.00 | 0.00 | 64 | 1012.4 |
| 20260504180015 | 64 | 245 | 2.6 | 11.3 | 0.00 | 0.00 | 0.00 | 61 | 1012.3 |
| 20260504174516 | 64 | 221 | 2.6 | 11.3 | 0.00 | 0.00 | 0.00 | 60 | 1012.1 |
| 20260504173021 | 65 | 210 | 5.2 | 10.4 | 0.00 | 0.00 | 0.00 | 58 | 1012.4 |
| 20260504171527 | 65 | 207 | 2.6 | 9.6 | 0.00 | 0.00 | 0.00 | 58 | 1012.1 |
| 20260504081506 | 51 | 205 | 2.6 | 5.2 | 0.00 | 0.00 | 0.00 | 56 | 1014.2 |
| 20260504050023 | 46 | 236 | 0.0 | 1.7 | 0.00 | 0.00 | 0.00 | 76 | 1015.9 |
| 20260504044525 | 47 | 236 | 0.0 | 0.0 | 0.00 | 0.00 | 0.00 | 73 | 1016.1 |
| 20260504043010 | 48 | 236 | 0.0 | 1.7 | 0.00 | 0.00 | 0.00 | 69 | 1016.1 |
| 20260504041515 | 48 | 236 | 0.0 | 1.7 | 0.00 | 0.00 | 0.00 | 64 | 1016.2 |
| 20260504040019 | 49 | 236 | 0.0 | 1.7 | 0.00 | 0.00 | 0.00 | 63 | 1016.2 |
| 20260504034537 | 49 | 235 | 0.0 | 0.0 | 0.00 | 0.00 | 0.00 | 62 | 1016.0 |
| 20260504033030 | 49 | 236 | 0.0 | 0.0 | 0.00 | 0.00 | 0.00 | 61 | 1015.8 |
| 20260504031516 | 50 | 235 | 0.0 | 1.7 | 0.00 | 0.00 | 0.00 | 63 | 1015.8 |
| 20260504030025 | 49 | 212 | 0.0 | 1.7 | 0.00 | 0.00 | 0.00 | 56 | 1015.9 |
| 20260504024523 | 50 | 229 | 0.0 | 1.7 | 0.00 | 0.00 | 0.00 | 61 | 1015.7 |
| 20260504023024 | 50 | 229 | 0.0 | 0.0 | 0.00 | 0.00 | 0.00 | 55 | 1015.8 |
| 20260504021528 | 50 | 229 | 0.0 | 0.9 | 0.00 | 0.00 | 0.00 | 52 | 1015.5 |
| 20260504020016 | 50 | 229 | 0.0 | 0.0 | 0.00 | 0.00 | 0.00 | 49 | 1015.5 |
| 20260504014505 | 51 | 229 | 0.0 | 1.7 | 0.00 | 0.00 | 0.00 | 52 | 1015.1 |
| 20260504013005 | 51 | 229 | 0.0 | 1.7 | 0.00 | 0.00 | 0.00 | 52 | 1015.2 |
| 20260504011504 | 52 | 229 | 0.0 | 1.7 | 0.00 | 0.00 | 0.00 | 50 | 1014.9 |
| 20260504010004 | 53 | 229 | 0.0 | 0.0 | 0.00 | 0.00 | 0.00 | 45 | 1015.4 |
| 20260504004504 | 55 | 229 | 0.0 | 0.0 | 0.00 | 0.00 | 0.00 | 43 | 1015.2 |
| 20260504003004 | 56 | 229 | 0.0 | 0.0 | 0.00 | 0.00 | 0.00 | 37 | 1015.5 |
| 20260504001504 | 57 | 229 | 0.0 | 2.6 | 0.00 | 0.00 | 0.00 | 35 | 1015.4 |
| 20260504000005 | 58 | 199 | 0.9 | 2.6 | 0.00 | 0.00 | 0.00 | 34 | 1015.5 |
| 20260503234508 | 59 | 250 | 0.9 | 2.6 | 0.00 | 0.00 | 0.00 | 32 | 1015.4 |
| 20260503233005 | 60 | 250 | 0.9 | 5.2 | 0.00 | 0.00 | 0.00 | 31 | 1015.5 |
| 20260503231504 | 61 | 210 | 0.0 | 6.1 | 0.00 | 0.00 | 0.00 | 30 | 1015.7 |
| 20260503230006 | 61 | 262 | 2.6 | 7.8 | 0.00 | 0.00 | 0.00 | 29 | 1015.7 |
| 20260503224503 | 62 | 231 | 1.7 | 6.1 | 0.00 | 0.00 | 0.00 | 29 | 1015.9 |
| 20260503223005 | 61 | 232 | 0.0 | 7.0 | 0.00 | 0.00 | 0.00 | 30 | 1016.1 |
| 20260503221525 | 62 | 226 | 3.5 | 7.0 | 0.00 | 0.00 | 0.00 | 30 | 1016.1 |
| 20260503220034 | 62 | 240 | 0.9 | 5.2 | 0.00 | 0.00 | 0.00 | 29 | 1016.2 |
| 20260503214527 | 61 | 278 | 2.6 | 7.8 | 0.00 | 0.00 | 0.00 | 30 | 1016.3 |
| 20260503213014 | 62 | 225 | 4.3 | 10.4 | 0.00 | 0.00 | 0.00 | 29 | 1016.6 |
| 20260503211523 | 61 | 253 | 4.3 | 11.3 | 0.00 | 0.00 | 0.00 | 30 | 1016.5 |
| 20260503210024 | 61 | 87 | 3.5 | 7.8 | 0.00 | 0.00 | 0.00 | 1016.4 | |
| 20260503204536 | 61 | 166 | 1.7 | 6.1 | 0.00 | 0.00 | 0.00 | 30 | 1016.6 |
| 20260503203026 | 61 | 207 | 1.7 | 3.5 | 0.00 | 0.00 | 0.00 | 1016.8 | |
| 20260503201523 | 60 | 223 | 1.7 | 5.2 | 0.00 | 0.00 | 0.00 | 31 | 1017.1 |
| 20260503200023 | 60 | 162 | 0.9 | 3.5 | 0.00 | 0.00 | 0.00 | 32 | 1017.2 |
| 20260503194527 | 59 | 225 | 2.6 | 9.6 | 0.00 | 0.00 | 0.00 | 31 | 1017.5 |
| 20260503193029 | 59 | 238 | 2.6 | 6.1 | 0.00 | 0.00 | 0.00 | 32 | 1017.8 |
| 20260503191525 | 61 | 130 | 0.9 | 6.1 | 0.00 | 0.00 | 0.00 | 30 | 1018.1 |